Temperature
10 10 9 9 9 9 9 9 9 9 9 8 8 8 8 8 8 8 8 8 8 7 7 7 6 6 6 6 5 5 5 5 5 5 5 5 6 6 6 6 7 7 7
10 10 9 9 9 9 9 9 9 9 9 9 9 9 8 8 8 8 8 8 7 7 7 7 6 6 6 5 5 5 5 5 5 5 5 5 5 5 5 6 6 6 6
10 10 10 9 9 9 9 9 9 9 9 9 9 9 9 9 8 8 8 8 7 7 7 7 6 6 5 5 5 5 5 5 5 4 4 4 4 4 5 5 5 5 5
10 10 10 9 9 9 9 9 9 9 9 9 9 9 9 9 8 8 8 7 7 7 7 6 6 6 5 5 5 4 4 4 4 4 4 4 4 4 4 4 4 4 5
10 10 10 9 9 9 9 9 9 9 9 9 9 9 9 9 8 8 8 7 7 7 6 6 6 6 5 5 4 4 4 4 3 3 3 3 3 3 3 4 4 4 4
10 10 10 10 9 9 9 9 9 9 9 9 9 9 9 9 8 8 7 7 7 6 6 6 6 5 5 5 4 4 3 3 3 3 3 3 3 3 3 3 3 3 4
10 10 10 10 9 9 9 9 9 9 9 9 9 9 9 8 8 7 7 7 6 6 6 5 5 5 5 4 4 4 3 3 2 2 2 2 2 2 2 2 3 3 3
10 10 10 10 9 9 9 9 9 9 9 9 9 8 8 8 7 7 7 7 6 6 5 5 5 5 4 4 4 4 3 3 2 2 2 2 2 2 2 2 2 2 2
10 10 10 10 9 9 9 9 9 9 9 8 8 8 8 7 7 7 7 6 6 5 5 5 5 4 4 4 4 3 3 2 2 1 1 1 1 1 1 1 1 1 1
10 10 10 9 9 9 9 9 9 9 8 8 8 8 7 7 6 6 6 6 6 5 5 5 4 4 4 3 3 3 2 2 1 1 1 0 0 1 1 1 1 1 1
10 10 10 9 9 9 9 9 9 9 8 8 8 7 7 6 6 5 5 6 6 5 5 4 4 4 3 3 3 2 2 1 0 0 0 -0 -0 -0 -0 -0 -0 -0 -0
10 10 9 9 9 9 9 9 9 8 8 8 7 7 7 6 6 5 4 5 5 5 5 4 4 3 3 2 2 1 1 1 0 -0 -1 -1 -1 -1 -1 -1 -1 -1 -1
10 10 9 9 9 9 9 9 8 8 8 8 7 7 6 6 5 5 4 4 3 4 4 4 3 3 2 1 1 1 0 -0 -0 -1 -1 -1 -1 -1 -1 -1 -1 -1 -1
10 10 9 9 9 9 9 9 8 8 8 7 7 7 6 6 5 4 4 3 2 2 3 3 3 2 1 1 0 -0 -0 -1 -1 -2 -2 -2 -2 -2 -2 -2 -2 -2 -2
10 9 9 9 9 9 9 8 8 8 7 7 7 6 6 5 5 4 3 2 1 1 1 2 2 1 0 -0 -0 -1 -1 -1 -2 -2 -2 -3 -3 -3 -3 -3 -3 -3 -3
10 9 9 9 9 9 8 8 8 7 7 7 6 6 5 5 4 4 3 2 2 1 -0 1 1 0 -0 -1 -1 -2 -2 -2 -2 -3 -3 -3 -3 -3 -3 -4 -4 -4 -3
9 9 9 9 9 8 8 8 7 7 7 6 6 5 5 4 4 3 3 2 2 1 -0 0 -0 -0 -1 -1 -1 -2 -2 -2 -3 -3 -3 -4 -4 -4 -4 -4 -4 -4 -4
9 9 9 8 8 8 8 7 7 7 6 6 5 5 5 4 3 3 2 2 1 0 -1 -1 -1 -1 -1 -2 -2 -2 -3 -3 -3 -3 -4 -4 -4 -4 -5 -5 -5 -5 -5
9 9 8 8 8 8 7 7 6 6 6 5 5 4 4 3 3 2 2 1 1 -0 -1 -1 -2 -2 -2 -2 -3 -3 -3 -4 -4 -4 -4 -4 -4 -5 -5 -5 -5 -5 -5
9 8 8 8 7 7 7 6 6 6 5 5 4 4 3 3 2 2 1 0 -0 -1 -1 -2 -2 -2 -3 -3 -4 -4 -4 -4 -4 -4 -4 -5 -5 -5 -5 -5 -5 -5 -5
8 8 8 7 7 7 6 6 5 5 5 4 4 3 2 2 1 1 0 -0 -1 -2 -2 -3 -3 -3 -3 -4 -4 -4 -5 -5 -5 -5 -5 -5 -5 -5 -5 -5 -5 -5 -5
8 7 7 7 6 6 6 5 5 4 4 3 3 2 2 1 1 0 -1 -1 -2 -2 -3 -3 -4 -4 -4 -4 -5 -5 -5 -6 -6 -6 -6 -6 -6 -6 -6 -6 -6 -6 -6
7 7 7 6 6 6 5 4 4 4 3 2 2 1 1 1 0 -0 -1 -1 -2 -2 -3 -4 -4 -4 -5 -5 -5 -5 -6 -6 -6 -6 -6 -6 -6 -6 -6 -6 -6 -6 -6
7 6 6 6 5 5 4 4 3 3 2 2 1 1 0 -0 -1 -1 -2 -2 -2 -3 -3 -4 -4 -5 -5 -5 -6 -6 -6 -6 -6 -6 -7 -7 -6 -7 -6 -6 -6 -6 -7
6 6 5 5 4 4 4 3 2 2 1 1 1 -0 -1 -1 -1 -2 -3 -3 -3 -4 -4 -5 -5 -5 -6 -6 -6 -6 -7 -7 -7 -7 -7 -8 -7 -7 -7 -6 -6 -7 -7
5 5 4 4 4 3 3 2 2 1 1 0 -0 -1 -1 -2 -2 -3 -4 -4 -4 -5 -5 -5 -6 -6 -6 -6 -7 -7 -7 -8 -8 -8 -8 -8 -8 -8 -8 -7 -7 -7 -7
Wind_Speed
7 8 7 6 6 5 4 2 1 1 2 3 4 4 4 5 4 2 2 2 2 4 6 7 8 8 8 9 9 10 10 11 12 12 13 13 13 14 14 14 15 15 16
10 8 6 6 6 6 4 3 2 1 1 2 3 4 4 5 4 2 2 2 2 3 5 6 7 8 8 9 10 10 11 11 12 12 13 13 14 14 14 15 15 16 16
13 10 6 5 6 6 5 3 2 2 2 2 3 4 4 4 3 2 1 2 2 3 4 5 6 7 8 10 10 11 11 12 12 13 13 14 14 15 15 15 16 16 17
15 11 6 5 7 6 4 2 1 1 2 2 2 3 3 3 3 2 2 2 3 3 3 4 5 7 8 10 11 12 12 12 13 13 14 14 15 15 16 16 16 17 17
16 12 7 7 8 5 3 2 2 1 0 1 2 2 3 2 2 2 3 3 3 3 3 3 4 6 8 10 11 12 12 13 13 14 14 15 15 16 16 17 17 17 18
16 13 8 8 8 4 3 2 2 2 1 1 2 3 3 3 2 2 2 3 3 3 3 3 4 5 8 10 12 13 13 13 14 14 14 15 15 16 17 17 17 18 18
15 13 7 7 6 4 5 4 3 2 1 1 2 4 4 4 3 2 2 2 3 3 4 4 5 5 6 8 10 13 13 14 14 14 15 16 16 17 17 18 18 19 19
15 13 9 6 6 5 5 4 3 3 1 2 2 2 3 4 3 3 3 2 2 4 4 6 6 6 6 7 8 11 13 14 15 15 16 16 17 18 18 19 19 20 20
15 14 12 9 7 6 6 5 5 5 3 0 1 3 2 3 3 4 3 2 2 2 3 6 7 8 8 8 8 10 12 14 15 16 17 17 18 19 19 20 20 20 21
14 14 13 11 8 6 6 6 5 4 5 3 1 1 2 3 2 3 4 3 3 3 3 5 7 9 9 9 9 11 14 15 16 17 18 19 20 20 21 21 21 21 22
11 13 13 11 8 6 7 7 5 5 4 4 3 2 1 1 2 3 4 5 4 4 4 5 6 8 9 8 10 12 14 16 17 18 19 20 21 21 22 22 22 23 23
6 9 11 10 9 7 7 7 6 7 5 4 4 4 4 3 3 4 5 5 5 4 4 4 4 6 7 8 10 13 15 17 18 19 20 21 21 22 23 23 23 24 24
6 9 8 8 7 8 8 7 6 6 6 5 5 4 4 4 3 4 3 4 4 4 4 3 4 6 6 8 10 13 15 18 19 20 21 21 22 23 24 24 24 25 25
8 9 9 8 9 9 9 7 5 5 5 6 6 5 4 4 4 4 4 3 3 4 3 5 3 5 7 8 10 14 14 18 20 21 22 22 23 24 24 25 25 25 25
7 9 9 9 8 9 8 7 5 6 5 5 6 5 4 4 4 4 4 4 4 4 5 5 4 4 7 9 12 13 14 18 21 21 22 23 24 24 25 24 25 25 25
9 10 10 9 9 8 7 7 5 5 6 5 4 5 5 4 4 4 4 4 5 5 6 5 5 5 7 10 15 15 15 19 20 22 23 24 24 24 24 24 24 25 25
10 11 10 9 9 8 8 7 7 6 7 6 5 6 6 5 4 4 4 4 5 5 8 7 5 4 5 7 11 14 15 14 15 21 23 24 24 24 24 24 25 25 26
10 10 10 9 9 8 8 8 8 7 7 7 7 6 7 5 5 5 4 5 6 6 7 10 6 4 6 7 7 7 10 13 13 19 22 23 24 24 24 24 25 25 25
9 9 9 10 9 8 8 8 8 7 7 7 7 7 7 6 6 6 6 6 6 6 6 7 8 5 5 5 6 7 7 8 13 17 20 21 22 23 24 24 24 25 25
9 9 9 9 8 7 7 7 7 7 7 7 7 7 7 7 8 7 6 7 7 7 6 7 8 6 5 6 4 6 7 6 8 11 16 18 20 22 23 24 24 24 24
8 8 7 7 6 6 7 7 7 7 7 7 6 6 7 9 11 9 7 6 6 6 6 7 8 6 6 5 5 5 8 8 8 7 7 8 10 9 14 19 21 22 23
6 6 7 7 6 6 9 11 8 6 6 7 7 7 7 8 11 14 16 15 12 8 7 6 7 7 8 7 6 7 7 8 6 3 4 7 6 7 8 11 18 22 22
6 6 6 6 6 6 8 9 10 5 6 6 7 7 6 7 10 7 12 16 15 17 16 10 9 9 8 7 7 8 8 8 9 5 5 8 5 8 7 13 20 21 21
5 5 5 5 5 5 7 8 8 5 5 6 7 7 8 8 8 9 8 8 9 9 12 9 8 9 8 7 8 8 9 8 6 5 4 6 6 6 8 9 17 19 18
4 4 4 4 4 4 6 6 6 3 4 6 6 7 7 8 14 16 10 8 8 8 12 16 17 15 17 18 14 6 5 6 7 5 3 4 4 5 6 6 10 15 17
4 4 3 3 4 3 5 6 6 2 4 5 5 6 10 11 14 16 8 7 9 9 7 8 10 11 10 11 14 6 4 6 6 5 2 3 4 4 5 4 4 7 10
Wind_Direction
183 186 192 195 202 206 206 208 255 340 1 6 14 21 10 7 3 359 354 2 27 24 27 22 19 17 15 15 12 8 2 357 353 350 346 342 340 339 336 332 330 328 325
182 178 179 187 197 197 191 179 169 102 16 8 15 13 7 6 10 20 21 40 51 58 46 33 25 17 14 11 7 3 358 354 350 347 344 341 338 334 331 328 326 324 321
182 177 173 183 194 187 176 156 117 76 48 29 10 358 3 2 11 21 57 85 86 74 58 43 29 15 11 5 360 357 354 350 347 344 341 339 336 332 329 326 324 322 319
183 174 172 186 189 173 158 136 109 79 30 13 345 338 349 351 2 25 89 111 112 88 60 41 27 12 4 358 354 352 348 345 344 342 340 339 336 332 329 327 324 322 319
182 174 177 185 175 157 152 143 114 120 68 341 322 334 346 345 350 52 87 103 110 99 65 36 21 7 356 350 347 345 342 341 340 338 338 336 334 332 330 327 325 322 320
182 176 176 177 166 149 147 138 130 105 105 324 347 354 348 346 14 63 78 87 89 83 60 32 10 353 347 344 342 339 336 336 336 335 334 332 331 330 328 326 324 323 320
180 175 172 168 164 162 167 159 138 117 63 41 42 359 349 4 29 35 40 57 55 53 38 13 353 340 336 339 339 335 333 332 331 330 330 329 328 327 325 324 323 321 319
179 179 170 168 166 159 159 159 144 133 100 77 108 70 359 343 346 2 0 18 20 25 10 352 342 331 324 323 326 330 329 327 326 325 325 326 326 324 322 321 321 319 318
181 178 175 169 168 165 171 173 161 152 159 124 119 140 145 241 299 321 334 349 345 346 333 328 324 323 321 317 318 318 322 323 321 321 321 323 322 320 320 320 319 318 316
180 180 177 173 170 168 171 175 167 158 150 166 158 136 163 165 181 301 314 315 319 305 300 308 310 312 315 314 317 317 319 319 318 317 318 318 317 316 316 316 315 315 314
180 179 177 173 171 173 175 170 162 162 161 166 172 167 149 131 164 190 273 301 309 281 275 281 287 297 307 313 317 316 317 318 317 317 316 315 314 313 313 312 313 312 310
181 181 177 176 175 174 176 175 171 169 171 169 174 173 172 178 194 191 231 268 287 285 279 270 270 281 293 306 313 316 317 316 315 314 313 313 312 311 310 309 309 308 307
189 190 179 179 177 179 177 171 171 176 176 179 187 193 193 199 185 183 206 252 273 290 294 279 257 267 278 300 308 314 316 314 313 312 312 311 310 310 309 307 307 306 305
193 184 180 181 179 177 176 173 173 183 181 190 197 197 202 211 195 190 193 211 278 290 281 271 277 256 269 288 299 311 310 311 310 309 309 309 309 308 307 306 305 305 304
183 179 179 179 181 179 177 172 184 190 185 196 202 205 210 218 210 209 201 192 204 266 282 264 266 263 265 281 295 301 298 304 307 308 308 307 306 306 305 305 305 304 303
179 177 181 182 181 182 180 178 186 190 191 203 202 206 220 224 222 216 214 213 206 219 260 258 250 257 274 286 296 302 296 302 305 306 305 304 304 304 304 305 305 305 304
180 182 184 183 183 185 183 184 194 192 200 211 211 213 227 225 228 231 226 225 225 216 255 273 256 260 263 270 286 290 291 289 291 301 302 302 303 304 304 305 305 305 304
183 183 180 182 186 188 187 191 199 200 205 214 220 221 235 234 237 239 235 238 240 229 240 272 278 267 259 263 266 274 287 290 287 296 300 302 302 302 303 304 305 305 305
179 179 179 185 190 190 192 198 200 205 211 218 220 223 234 232 245 247 244 248 250 253 241 260 278 266 261 264 272 276 277 280 287 294 298 300 301 302 303 305 306 306 307
177 181 186 189 190 190 195 199 201 209 218 225 225 226 231 230 240 247 251 250 252 258 258 262 274 275 266 264 264 276 288 276 281 289 289 293 297 301 303 305 305 306 306
179 179 180 186 188 190 200 200 203 210 218 229 236 237 239 245 252 258 261 255 250 254 260 266 274 278 275 275 271 266 286 289 278 268 270 279 289 288 293 298 302 302 304
169 170 181 187 194 204 214 215 212 210 215 225 240 247 252 259 267 275 279 281 278 271 267 264 271 272 275 268 268 272 283 293 292 258 259 279 276 280 285 286 295 302 306
169 176 184 188 204 218 222 228 227 213 217 227 236 246 260 263 275 267 278 285 286 285 284 280 273 270 273 269 272 278 275 279 283 281 281 286 275 279 282 290 300 305 308
172 179 186 193 206 228 233 239 239 226 228 236 240 243 251 261 266 272 264 268 266 270 278 280 266 266 264 266 262 273 282 285 274 267 257 278 284 279 288 288 296 305 313
168 177 183 189 204 238 245 250 253 227 243 254 256 253 256 259 275 285 282 274 276 275 284 285 285 286 292 299 302 303 299 300 297 288 246 254 279 291 288 281 291 309 318
165 164 176 190 203 234 258 264 264 234 253 264 267 266 274 280 286 292 286 278 281 281 277 284 288 294 296 298 305 302 286 286 290 291 263 259 277 305 302 281 282 299 308
Height
1548 1548 1549 1550 1550 1551 1550 1550 1550 1550 1549 1549 1548 1547 1546 1545 1544 1543 1542 1541 1540 1539 1538 1537 1536 1535 1535 1534 1532 1531 1529 1528 1527 1525 1524 1522 1521 1520 1519 1517 1516 1515 1514
1546 1547 1548 1549 1549 1550 1550 1549 1549 1549 1548 1548 1547 1546 1545 1544 1543 1542 1541 1540 1539 1538 1537 1536 1535 1534 1533 1532 1531 1530 1528 1526 1525 1523 1521 1520 1518 1517 1515 1514 1513 1512 1511
1545 1546 1547 1547 1548 1548 1549 1548 1548 1548 1547 1546 1546 1545 1543 1542 1541 1540 1539 1539 1538 1537 1536 1535 1534 1533 1532 1530 1529 1528 1526 1524 1523 1521 1519 1517 1516 1514 1513 1511 1510 1508 1507
1543 1544 1545 1546 1547 1547 1547 1547 1547 1547 1546 1545 1544 1543 1542 1541 1540 1539 1538 1537 1537 1536 1535 1534 1533 1531 1530 1529 1527 1526 1524 1522 1520 1518 1516 1514 1513 1511 1509 1508 1506 1505 1503
1541 1542 1543 1544 1545 1545 1546 1546 1546 1545 1545 1544 1543 1542 1540 1539 1538 1538 1537 1536 1536 1535 1534 1532 1531 1530 1528 1526 1525 1523 1521 1520 1518 1516 1514 1511 1510 1508 1506 1504 1502 1501 1499
1539 1540 1541 1542 1543 1544 1544 1544 1544 1543 1543 1542 1541 1540 1539 1538 1537 1537 1536 1535 1534 1533 1532 1531 1529 1528 1526 1524 1522 1520 1518 1517 1515 1513 1511 1508 1506 1504 1502 1500 1498 1497 1495
1536 1537 1539 1540 1541 1541 1542 1542 1542 1541 1541 1540 1540 1539 1538 1537 1536 1535 1535 1534 1533 1532 1530 1529 1527 1525 1523 1521 1519 1517 1515 1513 1512 1510 1507 1505 1503 1501 1499 1496 1494 1492 1490
1533 1534 1536 1537 1538 1539 1539 1540 1540 1539 1539 1538 1538 1537 1536 1536 1534 1534 1533 1532 1531 1530 1528 1527 1525 1522 1520 1518 1515 1513 1511 1509 1508 1506 1504 1502 1499 1497 1495 1492 1490 1488 1485
1530 1531 1533 1534 1535 1536 1537 1537 1537 1537 1537 1536 1536 1536 1534 1533 1532 1531 1530 1529 1528 1527 1526 1524 1522 1520 1517 1515 1512 1510 1507 1505 1504 1502 1500 1498 1495 1493 1490 1488 1485 1483 1480
1526 1528 1530 1531 1532 1533 1534 1534 1534 1534 1534 1534 1533 1533 1532 1531 1530 1528 1527 1526 1525 1524 1522 1520 1518 1516 1514 1511 1509 1506 1504 1501 1499 1497 1495 1493 1490 1488 1485 1482 1480 1477 1474
1522 1524 1526 1528 1529 1530 1531 1531 1531 1532 1531 1531 1530 1530 1529 1528 1527 1526 1523 1522 1521 1520 1518 1516 1514 1512 1510 1507 1505 1502 1499 1497 1494 1492 1490 1487 1484 1482 1479 1477 1474 1471 1468
1518 1520 1522 1524 1525 1526 1527 1528 1528 1528 1528 1528 1527 1526 1526 1525 1523 1522 1520 1517 1516 1514 1513 1512 1510 1508 1505 1503 1500 1497 1494 1492 1489 1486 1484 1481 1478 1476 1473 1470 1467 1465 1462
1513 1516 1518 1520 1521 1523 1524 1525 1525 1525 1525 1524 1524 1523 1522 1521 1520 1518 1516 1513 1511 1509 1507 1506 1505 1503 1500 1498 1495 1492 1489 1486 1483 1480 1478 1475 1472 1469 1466 1463 1461 1458 1455
1509 1512 1514 1516 1518 1519 1520 1521 1521 1521 1521 1521 1520 1519 1518 1517 1516 1514 1513 1510 1506 1503 1501 1500 1499 1497 1495 1492 1489 1486 1483 1480 1477 1474 1471 1468 1465 1462 1460 1457 1454 1451 1448
1506 1508 1510 1512 1514 1515 1516 1517 1517 1517 1517 1517 1516 1515 1514 1513 1512 1510 1508 1506 1504 1498 1494 1493 1493 1491 1489 1486 1483 1480 1477 1474 1471 1468 1465 1462 1459 1456 1452 1449 1446 1443 1441
1501 1503 1506 1508 1509 1510 1511 1512 1512 1513 1513 1512 1511 1510 1509 1508 1507 1505 1503 1501 1499 1495 1490 1487 1487 1485 1483 1480 1478 1474 1470 1467 1464 1461 1458 1455 1452 1449 1445 1442 1439 1436 1433
1497 1499 1501 1503 1504 1506 1507 1507 1508 1508 1508 1507 1507 1506 1504 1503 1502 1500 1498 1496 1493 1490 1484 1480 1480 1478 1476 1473 1470 1467 1464 1460 1457 1454 1450 1447 1445 1441 1438 1435 1432 1429 1426
1492 1495 1497 1498 1500 1501 1502 1503 1503 1503 1503 1502 1502 1500 1499 1498 1496 1494 1492 1490 1487 1484 1480 1474 1472 1471 1469 1466 1463 1460 1457 1453 1450 1446 1443 1440 1437 1434 1431 1428 1425 1421 1418
1488 1490 1492 1494 1495 1496 1497 1498 1498 1498 1498 1497 1496 1495 1494 1492 1490 1488 1486 1483 1481 1478 1474 1470 1465 1463 1461 1459 1455 1452 1449 1446 1443 1439 1436 1433 1430 1427 1424 1421 1417 1414 1410
1483 1486 1488 1489 1491 1492 1493 1493 1493 1493 1492 1492 1491 1490 1488 1486 1484 1482 1479 1477 1474 1471 1468 1464 1459 1456 1454 1452 1449 1445 1440 1438 1435 1432 1429 1426 1423 1420 1417 1413 1410 1406 1403
1479 1482 1483 1485 1486 1487 1488 1488 1488 1488 1487 1486 1485 1484 1482 1481 1478 1476 1473 1470 1467 1464 1461 1457 1453 1450 1447 1445 1442 1438 1434 1430 1426 1424 1421 1418 1415 1412 1409 1405 1402 1399 1396
1475 1477 1479 1480 1481 1482 1483 1483 1483 1482 1481 1480 1479 1478 1476 1474 1472 1469 1467 1464 1462 1458 1454 1451 1447 1444 1441 1439 1435 1432 1428 1423 1418 1418 1414 1410 1408 1404 1402 1398 1395 1392 1389
1471 1473 1475 1476 1477 1478 1478 1478 1478 1477 1476 1475 1473 1471 1469 1468 1465 1462 1459 1457 1455 1452 1450 1446 1441 1438 1435 1432 1429 1425 1422 1418 1414 1411 1408 1402 1401 1398 1395 1392 1389 1386 1383
1467 1469 1470 1471 1472 1473 1473 1473 1472 1471 1470 1469 1467 1465 1463 1460 1458 1455 1452 1448 1446 1444 1442 1439 1436 1432 1429 1426 1423 1420 1416 1411 1408 1406 1403 1398 1394 1391 1389 1386 1383 1380 1377
1463 1465 1466 1467 1468 1468 1469 1468 1467 1465 1464 1462 1461 1459 1456 1453 1451 1448 1445 1441 1438 1436 1434 1431 1429 1426 1423 1420 1418 1414 1410 1406 1401 1399 1397 1394 1389 1385 1382 1380 1378 1375 1372
1459 1461 1462 1463 1463 1464 1464 1463 1462 1460 1458 1456 1454 1452 1450 1447 1444 1442 1439 1435 1431 1428 1426 1423 1421 1418 1416 1413 1411 1408 1404 1401 1397 1393 1391 1389 1385 1382 1377 1374 1373 1371 1368